contact: severine.martini@mio.osupytheas.fr, dominique.lefevre@mio.osupytheas.fr
Project:EMSO Ligure-ouest http://www.emso-fr.org/EMSO-France
Sensor Optode, line 4330 Serial 272 
DOI : "https://doi.org/10.17882/97948" 
Title:EMSO Ligure Ouest : Data BathyDock capteur Optode - deploiement "2023-04-28"
Datetime,Profondeur,Latitude,Longitude,optode_type,serial,O2_concentration,O2_saturation,Temperature,Calibrated_Phase,Temp_Compensated_Phase,phase_blue_light,phase_red_light,Amplitude_blue_light,Amplitude_red_light,thermistor_bridge
time,m,degree_north,degree_east,1,1,umol.l-1,%,degree_C,degree,degree,degree,degree,mV,mV,mV
2024-01-28T00:00:07,2420,42.8014,5.9826,4330,272,185.890,56.956,13.329,36.068,36.647,41.241,4.594,296.4,546.6,290.6
2024-01-28T00:03:07,2420,42.8014,5.9826,4330,272,185.892,56.961,13.332,36.066,36.646,41.236,4.590,296.3,546.6,290.5
2024-01-28T00:06:07,2420,42.8014,5.9826,4330,272,185.721,56.906,13.330,36.078,36.658,41.248,4.590,296.3,546.5,290.6
2024-01-28T00:09:07,2420,42.8014,5.9826,4330,272,185.939,56.975,13.332,36.063,36.643,41.240,4.596,296.3,546.5,290.5
2024-01-28T00:12:07,2420,42.8014,5.9826,4330,272,185.811,56.943,13.337,36.069,36.649,41.242,4.593,296.4,546.5,290.3
2024-01-28T00:15:07,2420,42.8014,5.9826,4330,272,185.763,56.915,13.327,36.077,36.657,41.245,4.588,296.4,546.5,290.7
2024-01-28T00:18:07,2420,42.8014,5.9826,4330,272,185.987,56.983,13.326,36.063,36.643,41.239,4.595,296.4,546.5,290.7
2024-01-28T00:21:07,2420,42.8014,5.9826,4330,272,186.093,57.018,13.328,36.055,36.635,41.231,4.596,296.4,546.5,290.6
2024-01-28T00:24:07,2420,42.8014,5.9826,4330,272,185.969,56.971,13.321,36.066,36.646,41.241,4.595,296.4,546.6,290.9
2024-01-28T00:27:08,2420,42.8014,5.9826,4330,272,185.887,56.952,13.326,36.070,36.650,41.240,4.590,296.4,546.6,290.7
2024-01-28T00:30:08,2420,42.8014,5.9826,4330,272,186.100,57.007,13.318,36.059,36.639,41.233,4.594,296.4,546.6,291.0
2024-01-28T00:33:07,2420,42.8014,5.9826,4330,272,185.990,56.970,13.315,36.068,36.648,41.238,4.590,296.3,546.6,291.1
2024-01-28T00:36:07,2420,42.8014,5.9826,4330,272,186.075,57.000,13.319,36.061,36.641,41.229,4.588,296.3,546.6,290.9
2024-01-28T00:39:07,2420,42.8014,5.9826,4330,272,186.038,56.997,13.324,36.060,36.640,41.234,4.594,296.3,546.6,290.8
2024-01-28T00:42:07,2420,42.8014,5.9826,4330,272,186.096,57.011,13.322,36.058,36.637,41.230,4.592,296.3,546.7,290.8
2024-01-28T00:45:07,2420,42.8014,5.9826,4330,272,185.778,56.931,13.335,36.072,36.652,41.242,4.590,296.3,546.6,290.4
2024-01-28T00:48:08,2420,42.8014,5.9826,4330,272,186.027,56.991,13.323,36.062,36.641,41.234,4.592,296.3,546.5,290.8
2024-01-28T00:51:08,2420,42.8014,5.9826,4330,272,185.889,56.968,13.338,36.063,36.643,41.229,4.586,296.3,546.5,290.3
2024-01-28T00:54:08,2420,42.8014,5.9826,4330,272,185.884,56.952,13.327,36.070,36.649,41.233,4.584,296.3,546.5,290.7
2024-01-28T00:57:08,2420,42.8014,5.9826,4330,272,185.814,56.932,13.327,36.073,36.653,41.249,4.596,296.3,546.6,290.7
2024-01-28T01:00:07,2420,42.8014,5.9826,4330,272,185.794,56.941,13.340,36.069,36.649,41.245,4.596,296.4,546.5,290.3
2024-01-28T01:03:07,2420,42.8014,5.9826,4330,272,185.739,56.926,13.341,36.072,36.651,41.240,4.589,296.3,546.5,290.2
2024-01-28T01:06:07,2420,42.8014,5.9826,4330,272,185.672,56.903,13.339,36.077,36.657,41.244,4.587,296.3,546.5,290.3
2024-01-28T01:09:07,2420,42.8014,5.9826,4330,272,185.937,56.979,13.335,36.062,36.642,41.232,4.590,296.4,546.5,290.4
2024-01-28T01:12:08,2420,42.8014,5.9826,4330,272,185.595,56.876,13.336,36.084,36.663,41.250,4.587,296.4,546.5,290.4
2024-01-28T01:15:08,2420,42.8014,5.9826,4330,272,185.844,56.956,13.339,36.066,36.646,41.237,4.591,296.4,546.6,290.3
2024-01-28T01:18:08,2420,42.8014,5.9826,4330,272,185.731,56.912,13.332,36.077,36.657,41.253,4.596,296.4,546.5,290.5
2024-01-28T01:21:08,2420,42.8014,5.9826,4330,272,186.185,57.045,13.327,36.049,36.629,41.225,4.596,296.4,546.6,290.7
2024-01-28T01:24:07,2420,42.8014,5.9826,4330,272,185.560,56.865,13.336,36.086,36.665,41.258,4.593,296.3,546.5,290.4
2024-01-28T01:27:07,2420,42.8014,5.9826,4330,272,185.724,56.903,13.327,36.080,36.659,41.241,4.582,296.3,546.5,290.7
2024-01-28T01:30:08,2420,42.8014,5.9826,4330,272,186.044,56.998,13.324,36.059,36.639,41.234,4.595,296.4,546.6,290.8
2024-01-28T01:33:07,2420,42.8014,5.9826,4330,272,185.702,56.895,13.326,36.082,36.661,41.251,4.590,296.4,546.6,290.7
2024-01-28T01:36:07,2420,42.8014,5.9826,4330,272,185.743,56.917,13.333,36.076,36.655,41.246,4.590,296.3,546.6,290.5
2024-01-28T01:39:07,2420,42.8014,5.9826,4330,272,185.863,56.964,13.341,36.064,36.644,41.237,4.594,296.3,546.5,290.2
2024-01-28T01:42:07,2420,42.8014,5.9826,4330,272,185.605,56.886,13.342,36.080,36.660,41.253,4.594,296.4,546.5,290.2
2024-01-28T01:45:07,2420,42.8014,5.9826,4330,272,185.737,56.931,13.345,36.070,36.649,41.234,4.585,296.4,546.5,290.1
2024-01-28T01:48:07,2420,42.8014,5.9826,4330,272,185.742,56.924,13.338,36.073,36.653,41.242,4.589,296.3,546.5,290.3
2024-01-28T01:51:08,2420,42.8014,5.9826,4330,272,185.682,56.909,13.341,36.075,36.655,41.245,4.589,296.4,546.5,290.2
2024-01-28T01:54:08,2420,42.8014,5.9826,4330,272,185.721,56.918,13.339,36.074,36.654,41.244,4.590,296.4,546.5,290.3
2024-01-28T01:57:07,2420,42.8014,5.9826,4330,272,185.650,56.899,13.341,36.077,36.657,41.249,4.591,296.3,546.5,290.2
2024-01-28T02:00:07,2420,42.8014,5.9826,4330,272,185.876,56.966,13.339,36.064,36.644,41.240,4.596,296.4,546.5,290.3
2024-01-28T02:03:07,2420,42.8014,5.9826,4330,272,185.617,56.883,13.336,36.082,36.662,41.257,4.595,296.4,546.5,290.4
2024-01-28T02:06:07,2420,42.8014,5.9826,4330,272,185.496,56.838,13.330,36.093,36.673,41.265,4.592,296.6,546.5,290.6
2024-01-28T02:09:07,2420,42.8014,5.9826,4330,272,185.705,56.899,13.328,36.080,36.660,41.250,4.591,296.5,546.6,290.6
2024-01-28T02:12:07,2420,42.8014,5.9826,4330,272,185.883,56.954,13.328,36.069,36.648,41.242,4.594,296.4,546.5,290.6
2024-01-28T02:15:07,2420,42.8014,5.9826,4330,272,185.816,56.940,13.333,36.071,36.651,41.239,4.588,296.4,546.6,290.5
2024-01-28T02:18:07,2420,42.8014,5.9826,4330,272,185.567,56.865,13.335,36.086,36.666,41.257,4.591,296.4,546.4,290.4
2024-01-28T02:21:08,2420,42.8014,5.9826,4330,272,185.952,56.979,13.332,36.063,36.642,41.235,4.592,296.5,546.6,290.5
2024-01-28T02:24:08,2420,42.8014,5.9826,4330,272,185.294,56.783,13.336,36.104,36.683,41.274,4.591,296.4,546.5,290.4
2024-01-28T02:27:08,2420,42.8014,5.9826,4330,272,185.520,56.854,13.337,36.088,36.668,41.250,4.583,296.4,546.4,290.3
2024-01-28T02:30:08,2420,42.8014,5.9826,4330,272,185.803,56.937,13.334,36.071,36.651,41.242,4.591,296.5,546.5,290.4
2024-01-28T02:33:07,2420,42.8014,5.9826,4330,272,185.548,56.860,13.335,36.087,36.667,41.258,4.592,296.4,546.5,290.4
2024-01-28T02:36:07,2420,42.8014,5.9826,4330,272,185.777,56.928,13.333,36.073,36.653,41.243,4.590,296.4,546.5,290.5
2024-01-28T02:39:07,2420,42.8014,5.9826,4330,272,185.662,56.897,13.336,36.079,36.659,41.252,4.593,296.4,546.5,290.4
2024-01-28T02:42:07,2420,42.8014,5.9826,4330,272,185.981,57.006,13.346,36.054,36.634,41.236,4.602,296.4,546.5,290.1
2024-01-28T02:45:08,2420,42.8014,5.9826,4330,272,185.600,56.886,13.343,36.080,36.660,41.251,4.592,296.5,546.5,290.2
2024-01-28T02:48:08,2420,42.8014,5.9826,4330,272,185.558,56.873,13.343,36.083,36.663,41.247,4.584,296.4,546.4,290.1
2024-01-28T02:51:08,2420,42.8014,5.9826,4330,272,185.416,56.822,13.337,36.095,36.675,41.261,4.586,296.5,546.5,290.3
2024-01-28T02:54:07,2420,42.8014,5.9826,4330,272,184.902,56.666,13.338,36.128,36.708,41.290,4.582,296.7,546.5,290.3
2024-01-28T02:57:07,2420,42.8014,5.9826,4330,272,185.424,56.825,13.337,36.094,36.674,41.263,4.589,296.7,546.4,290.3
2024-01-28T03:00:08,2420,42.8014,5.9826,4330,272,185.312,56.797,13.342,36.099,36.678,41.272,4.594,296.7,546.4,290.2
2024-01-28T03:03:07,2420,42.8014,5.9826,4330,272,185.333,56.806,13.344,36.097,36.677,41.268,4.592,296.7,546.5,290.1
2024-01-28T03:06:07,2420,42.8014,5.9826,4330,272,185.534,56.864,13.342,36.085,36.665,41.257,4.593,296.5,546.5,290.2
2024-01-28T03:09:07,2420,42.8014,5.9826,4330,272,185.309,56.796,13.342,36.099,36.679,41.272,4.593,296.5,546.5,290.2
2024-01-28T03:12:08,2420,42.8014,5.9826,4330,272,185.577,56.873,13.338,36.084,36.664,41.261,4.597,296.5,546.5,290.3
2024-01-28T03:15:07,2420,42.8014,5.9826,4330,272,185.524,56.860,13.341,36.087,36.666,41.256,4.590,296.4,546.4,290.2
2024-01-28T03:18:07,2420,42.8014,5.9826,4330,272,185.813,56.948,13.340,36.067,36.647,41.242,4.594,296.5,546.4,290.2
2024-01-28T03:21:07,2420,42.8014,5.9826,4330,272,185.576,56.881,13.345,36.081,36.660,41.255,4.595,296.4,546.4,290.1
2024-01-28T03:24:07,2420,42.8014,5.9826,4330,272,185.911,56.973,13.337,36.063,36.643,41.238,4.595,296.6,546.5,290.4
2024-01-28T03:27:07,2420,42.8014,5.9826,4330,272,185.904,56.973,13.338,36.062,36.642,41.243,4.601,296.5,546.5,290.3
2024-01-28T03:30:08,2420,42.8014,5.9826,4330,272,185.859,56.960,13.339,36.065,36.645,41.238,4.593,296.4,546.4,290.3
2024-01-28T03:33:07,2420,42.8014,5.9826,4330,272,185.491,56.849,13.340,36.089,36.669,41.259,4.591,296.4,546.5,290.2
2024-01-28T03:36:07,2420,42.8014,5.9826,4330,272,185.680,56.896,13.332,36.080,36.660,41.254,4.594,296.5,546.5,290.5
2024-01-28T03:39:08,2420,42.8014,5.9826,4330,272,185.654,56.876,13.322,36.086,36.666,41.251,4.585,296.5,546.5,290.8
2024-01-28T03:42:08,2420,42.8014,5.9826,4330,272,185.692,56.899,13.331,36.080,36.659,41.251,4.592,296.4,546.5,290.5
2024-01-28T03:45:08,2420,42.8014,5.9826,4330,272,185.561,56.856,13.329,36.090,36.669,41.265,4.595,296.5,546.6,290.6
2024-01-28T03:48:08,2420,42.8014,5.9826,4330,272,185.584,56.876,13.339,36.083,36.662,41.256,4.594,296.4,546.5,290.3
2024-01-28T03:51:07,2420,42.8014,5.9826,4330,272,186.051,57.003,13.326,36.059,36.639,41.228,4.589,296.5,546.5,290.7
2024-01-28T03:54:07,2420,42.8014,5.9826,4330,272,186.041,57.004,13.330,36.057,36.637,41.234,4.596,296.5,546.7,290.6
2024-01-28T03:57:07,2420,42.8014,5.9826,4330,272,185.748,56.900,13.319,36.082,36.661,41.250,4.588,296.5,546.6,290.9
2024-01-28T04:00:07,2420,42.8014,5.9826,4330,272,185.562,56.849,13.323,36.092,36.671,41.265,4.593,296.5,546.6,290.8
2024-01-28T04:03:07,2420,42.8014,5.9826,4330,272,185.856,56.932,13.318,36.076,36.656,41.251,4.595,296.4,546.5,291.0
2024-01-28T04:06:07,2420,42.8014,5.9826,4330,272,185.786,56.917,13.323,36.078,36.657,41.249,4.591,296.4,546.5,290.8
2024-01-28T04:09:07,2420,42.8014,5.9826,4330,272,185.705,56.889,13.320,36.084,36.664,41.255,4.591,296.3,546.6,290.9
2024-01-28T04:12:08,2420,42.8014,5.9826,4330,272,185.595,56.856,13.321,36.091,36.670,41.253,4.583,296.4,546.5,290.9
2024-01-28T04:15:08,2420,42.8014,5.9826,4330,272,185.667,56.879,13.322,36.086,36.666,41.253,4.587,296.4,546.5,290.8
2024-01-28T04:18:08,2420,42.8014,5.9826,4330,272,185.921,56.953,13.318,36.071,36.651,41.238,4.587,296.4,546.5,291.0
2024-01-28T04:21:07,2420,42.8014,5.9826,4330,272,185.992,56.976,13.320,36.066,36.646,41.239,4.593,296.4,546.6,290.9
2024-01-28T04:24:07,2420,42.8014,5.9826,4330,272,186.126,57.019,13.321,36.057,36.637,41.225,4.589,296.4,546.6,290.9
2024-01-28T04:27:07,2420,42.8014,5.9826,4330,272,186.044,56.988,13.316,36.064,36.644,41.238,4.594,296.3,546.5,291.0
2024-01-28T04:30:07,2420,42.8014,5.9826,4330,272,186.249,57.051,13.316,36.051,36.630,41.224,4.593,296.4,546.6,291.0
2024-01-28T04:33:07,2420,42.8014,5.9826,4330,272,185.765,56.901,13.315,36.083,36.662,41.255,4.593,296.5,546.6,291.1
2024-01-28T04:36:07,2420,42.8014,5.9826,4330,272,185.864,56.933,13.317,36.076,36.655,41.245,4.590,296.4,546.6,291.0
2024-01-28T04:39:08,2420,42.8014,5.9826,4330,272,185.920,56.952,13.318,36.072,36.651,41.240,4.588,296.4,546.6,291.0
2024-01-28T04:42:08,2420,42.8014,5.9826,4330,272,185.800,56.912,13.315,36.080,36.660,41.249,4.589,296.3,546.6,291.1
2024-01-28T04:45:08,2420,42.8014,5.9826,4330,272,185.967,56.967,13.318,36.068,36.648,41.236,4.588,296.3,546.7,291.0
2024-01-28T04:48:08,2420,42.8014,5.9826,4330,272,186.148,57.020,13.316,36.057,36.637,41.228,4.591,296.4,546.5,291.0
2024-01-28T04:51:08,2420,42.8014,5.9826,4330,272,185.816,56.917,13.316,36.079,36.659,41.252,4.594,296.3,546.5,291.0
2024-01-28T04:54:07,2420,42.8014,5.9826,4330,272,186.111,57.015,13.321,36.057,36.637,41.229,4.592,296.4,546.6,290.9
2024-01-28T04:57:07,2420,42.8014,5.9826,4330,272,185.836,56.923,13.315,36.078,36.658,41.246,4.588,296.4,546.6,291.1
2024-01-28T05:00:07,2420,42.8014,5.9826,4330,272,186.004,56.979,13.318,36.065,36.645,41.236,4.591,296.4,546.6,290.9
2024-01-28T05:03:07,2420,42.8014,5.9826,4330,272,186.049,56.991,13.318,36.063,36.643,41.233,4.590,296.4,546.6,291.0
2024-01-28T05:06:07,2420,42.8014,5.9826,4330,272,186.257,57.062,13.323,36.046,36.626,41.221,4.595,296.3,546.6,290.8
2024-01-28T05:09:07,2420,42.8014,5.9826,4330,272,186.030,56.987,13.319,36.063,36.643,41.233,4.589,296.4,546.5,290.9
2024-01-28T05:12:07,2420,42.8014,5.9826,4330,272,186.118,57.013,13.318,36.058,36.638,41.230,4.592,296.3,546.6,291.0
2024-01-28T05:15:08,2420,42.8014,5.9826,4330,272,186.059,56.991,13.315,36.063,36.643,41.238,4.596,296.3,546.5,291.1
2024-01-28T05:18:08,2420,42.8014,5.9826,4330,272,185.879,56.936,13.315,36.075,36.655,41.245,4.590,296.4,546.6,291.1
2024-01-28T05:21:08,2420,42.8014,5.9826,4330,272,186.077,56.998,13.316,36.062,36.642,41.238,4.596,296.3,546.6,291.0
2024-01-28T05:24:08,2420,42.8014,5.9826,4330,272,186.052,56.990,13.316,36.064,36.644,41.240,4.597,296.3,546.6,291.0
2024-01-28T05:27:08,2420,42.8014,5.9826,4330,272,185.947,56.960,13.317,36.070,36.650,41.241,4.591,296.4,546.6,291.0
2024-01-28T05:30:07,2420,42.8014,5.9826,4330,272,185.987,56.973,13.318,36.067,36.647,41.238,4.591,296.4,546.6,290.9
2024-01-28T05:33:07,2420,42.8014,5.9826,4330,272,186.079,57.000,13.317,36.061,36.641,41.238,4.597,296.3,546.5,291.0
2024-01-28T05:36:07,2420,42.8014,5.9826,4330,272,186.055,56.996,13.320,36.062,36.641,41.233,4.592,296.3,546.6,290.9
2024-01-28T05:39:07,2420,42.8014,5.9826,4330,272,186.123,57.014,13.318,36.058,36.638,41.231,4.593,296.3,546.5,291.0
2024-01-28T05:42:08,2420,42.8014,5.9826,4330,272,186.050,56.989,13.316,36.063,36.643,41.239,4.596,296.4,546.6,291.0
2024-01-28T05:45:08,2420,42.8014,5.9826,4330,272,185.762,56.899,13.314,36.083,36.663,41.254,4.591,296.3,546.5,291.1
2024-01-28T05:48:08,2420,42.8014,5.9826,4330,272,185.745,56.899,13.318,36.083,36.663,41.249,4.587,296.3,546.6,291.0
2024-01-28T05:51:08,2420,42.8014,5.9826,4330,272,185.923,56.948,13.314,36.072,36.652,41.241,4.589,296.3,546.6,291.1
2024-01-28T05:54:07,2420,42.8014,5.9826,4330,272,185.951,56.957,13.314,36.071,36.651,41.240,4.589,296.4,546.5,291.1
2024-01-28T05:57:07,2420,42.8014,5.9826,4330,272,185.872,56.933,13.314,36.076,36.656,41.249,4.594,296.3,546.5,291.1
2024-01-28T06:00:07,2420,42.8014,5.9826,4330,272,185.900,56.941,13.314,36.074,36.654,41.243,4.589,296.3,546.6,291.1
2024-01-28T06:03:07,2420,42.8014,5.9826,4330,272,186.118,57.006,13.312,36.061,36.641,41.236,4.595,296.4,546.6,291.2
2024-01-28T06:06:07,2420,42.8014,5.9826,4330,272,185.904,56.947,13.318,36.073,36.652,41.243,4.591,296.3,546.6,291.0
2024-01-28T06:09:08,2420,42.8014,5.9826,4330,272,186.050,56.990,13.316,36.064,36.643,41.233,4.589,296.3,546.6,291.0
2024-01-28T06:12:08,2420,42.8014,5.9826,4330,272,185.891,56.941,13.316,36.073,36.653,41.242,4.589,296.3,546.6,291.0
2024-01-28T06:15:08,2420,42.8014,5.9826,4330,272,185.912,56.948,13.317,36.072,36.652,41.243,4.591,296.3,546.6,291.0
2024-01-28T06:18:08,2420,42.8014,5.9826,4330,272,186.237,57.047,13.316,36.051,36.631,41.226,4.595,296.3,546.7,291.0
2024-01-28T06:21:07,2420,42.8014,5.9826,4330,272,185.791,56.912,13.318,36.079,36.659,41.249,4.590,296.3,546.6,291.0
2024-01-28T06:24:07,2420,42.8014,5.9826,4330,272,186.088,56.999,13.315,36.062,36.641,41.231,4.589,296.3,546.6,291.1
2024-01-28T06:27:08,2420,42.8014,5.9826,4330,272,185.956,56.961,13.316,36.070,36.649,41.238,4.588,296.4,546.6,291.0
2024-01-28T06:30:08,2420,42.8014,5.9826,4330,272,186.282,57.061,13.316,36.048,36.628,41.225,4.597,296.2,546.6,291.0
2024-01-28T06:33:07,2420,42.8014,5.9826,4330,272,186.125,57.012,13.315,36.059,36.639,41.232,4.593,296.4,546.6,291.1
2024-01-28T06:36:07,2420,42.8014,5.9826,4330,272,186.227,57.041,13.314,36.053,36.633,41.227,4.594,296.3,546.6,291.1
2024-01-28T06:39:08,2420,42.8014,5.9826,4330,272,186.056,56.989,13.314,36.064,36.644,41.235,4.590,296.3,546.6,291.1
2024-01-28T06:42:08,2420,42.8014,5.9826,4330,272,185.869,56.929,13.312,36.078,36.657,41.251,4.594,296.3,546.7,291.2
2024-01-28T06:45:08,2420,42.8014,5.9826,4330,272,186.291,57.065,13.317,36.048,36.628,41.219,4.591,296.3,546.6,291.0
2024-01-28T06:48:07,2420,42.8014,5.9826,4330,272,186.158,57.019,13.313,36.058,36.638,41.233,4.595,296.4,546.6,291.1
2024-01-28T06:51:07,2420,42.8014,5.9826,4330,272,185.987,56.965,13.312,36.070,36.650,41.237,4.587,296.3,546.7,291.2
2024-01-28T06:54:07,2420,42.8014,5.9826,4330,272,186.062,56.988,13.312,36.065,36.644,41.235,4.590,296.3,546.6,291.2
2024-01-28T06:57:08,2420,42.8014,5.9826,4330,272,186.280,57.053,13.311,36.051,36.631,41.225,4.594,296.3,546.6,291.2
2024-01-28T07:00:08,2420,42.8014,5.9826,4330,272,186.008,56.972,13.313,36.068,36.648,41.239,4.591,296.3,546.7,291.1
2024-01-28T07:03:07,2420,42.8014,5.9826,4330,272,185.799,56.907,13.312,36.082,36.661,41.250,4.589,296.2,546.7,291.2
2024-01-28T07:06:07,2420,42.8014,5.9826,4330,272,186.238,57.041,13.311,36.054,36.634,41.224,4.591,296.3,546.6,291.2
2024-01-28T07:09:07,2420,42.8014,5.9826,4330,272,186.202,57.029,13.311,36.056,36.636,41.227,4.591,296.3,546.7,291.2
2024-01-28T07:12:07,2420,42.8014,5.9826,4330,272,186.031,56.978,13.311,36.067,36.647,41.241,4.594,296.2,546.6,291.2
2024-01-28T07:15:08,2420,42.8014,5.9826,4330,272,186.128,57.011,13.314,36.059,36.639,41.232,4.593,296.2,546.6,291.1
2024-01-28T07:18:08,2420,42.8014,5.9826,4330,272,186.387,57.086,13.310,36.044,36.624,41.217,4.593,296.3,546.7,291.2
2024-01-28T07:21:08,2420,42.8014,5.9826,4330,272,186.200,57.028,13.310,36.057,36.637,41.232,4.595,296.3,546.7,291.2
2024-01-28T07:24:08,2420,42.8014,5.9826,4330,272,186.232,57.039,13.311,36.054,36.634,41.228,4.594,296.4,546.7,291.2
2024-01-28T07:27:07,2420,42.8014,5.9826,4330,272,186.242,57.039,13.308,36.054,36.634,41.233,4.598,296.3,546.6,291.3
2024-01-28T07:30:07,2420,42.8014,5.9826,4330,272,186.038,56.977,13.309,36.068,36.647,41.241,4.594,296.3,546.7,291.3
2024-01-28T07:33:07,2420,42.8014,5.9826,4330,272,186.087,56.994,13.311,36.064,36.644,41.231,4.588,296.3,546.7,291.2
2024-01-28T07:36:07,2420,42.8014,5.9826,4330,272,185.913,56.936,13.307,36.077,36.657,41.241,4.585,296.4,546.7,291.3
2024-01-28T07:39:07,2420,42.8014,5.9826,4330,272,186.295,57.053,13.307,36.052,36.632,41.223,4.591,296.2,546.6,291.3
2024-01-28T07:42:08,2420,42.8014,5.9826,4330,272,186.075,56.987,13.308,36.066,36.646,41.237,4.591,296.3,546.7,291.3
2024-01-28T07:45:08,2420,42.8014,5.9826,4330,272,186.292,57.054,13.308,36.051,36.631,41.226,4.594,296.2,546.7,291.3
2024-01-28T07:48:08,2420,42.8014,5.9826,4330,272,186.026,56.970,13.306,36.070,36.650,41.244,4.595,296.3,546.7,291.3
2024-01-28T07:51:08,2420,42.8014,5.9826,4330,272,186.288,57.052,13.308,36.052,36.632,41.224,4.592,296.3,546.6,291.3
2024-01-28T07:54:07,2420,42.8014,5.9826,4330,272,186.406,57.087,13.307,36.045,36.625,41.221,4.596,296.2,546.7,291.3
2024-01-28T07:57:07,2420,42.8014,5.9826,4330,272,186.309,57.057,13.307,36.051,36.631,41.226,4.595,296.3,546.7,291.3
2024-01-28T08:00:08,2420,42.8014,5.9826,4330,272,186.062,56.981,13.306,36.067,36.647,41.238,4.591,296.2,546.7,291.3
2024-01-28T08:03:07,2420,42.8014,5.9826,4330,272,186.402,57.087,13.307,36.045,36.625,41.216,4.591,296.2,546.7,291.3
2024-01-28T08:06:07,2420,42.8014,5.9826,4330,272,186.254,57.041,13.308,36.055,36.634,41.227,4.592,296.2,546.7,291.3
2024-01-28T08:09:07,2420,42.8014,5.9826,4330,272,186.319,57.062,13.308,36.050,36.630,41.223,4.592,296.2,546.7,291.3
2024-01-28T08:12:07,2420,42.8014,5.9826,4330,272,186.212,57.030,13.309,36.056,36.636,41.226,4.590,296.3,546.7,291.3
2024-01-28T08:15:08,2420,42.8014,5.9826,4330,272,186.145,57.008,13.308,36.062,36.642,41.236,4.594,296.3,546.7,291.3
2024-01-28T08:18:08,2420,42.8014,5.9826,4330,272,186.136,57.002,13.305,36.064,36.644,41.233,4.589,296.3,546.6,291.4
2024-01-28T08:21:08,2420,42.8014,5.9826,4330,272,186.059,56.980,13.306,36.068,36.648,41.243,4.595,296.3,546.7,291.3
2024-01-28T08:24:07,2420,42.8014,5.9826,4330,272,185.987,56.958,13.306,36.073,36.652,41.246,4.594,296.2,546.7,291.4
2024-01-28T08:27:07,2420,42.8014,5.9826,4330,272,186.507,57.115,13.305,36.040,36.620,41.212,4.593,296.3,546.7,291.4
2024-01-28T08:30:08,2420,42.8014,5.9826,4330,272,186.365,57.072,13.305,36.049,36.629,41.224,4.595,296.2,546.7,291.4
2024-01-28T08:33:07,2420,42.8014,5.9826,4330,272,186.236,57.033,13.305,36.056,36.636,41.229,4.593,296.2,546.7,291.4
2024-01-28T08:36:07,2420,42.8014,5.9826,4330,272,186.055,56.977,13.305,36.069,36.648,41.239,4.591,296.2,546.6,291.4
2024-01-28T08:39:07,2420,42.8014,5.9826,4330,272,186.467,57.104,13.305,36.041,36.621,41.214,4.592,296.2,546.7,291.4
2024-01-28T08:42:08,2420,42.8014,5.9826,4330,272,186.414,57.089,13.307,36.044,36.624,41.210,4.586,296.2,546.7,291.3
2024-01-28T08:45:08,2420,42.8014,5.9826,4330,272,186.573,57.135,13.304,36.035,36.615,41.207,4.592,296.2,546.6,291.4
2024-01-28T08:48:08,2420,42.8014,5.9826,4330,272,186.292,57.050,13.305,36.053,36.633,41.224,4.591,296.2,546.7,291.4
2024-01-28T08:51:08,2420,42.8014,5.9826,4330,272,186.287,57.049,13.306,36.054,36.633,41.228,4.594,296.2,546.7,291.4
2024-01-28T08:54:07,2420,42.8014,5.9826,4330,272,186.200,57.023,13.306,36.058,36.638,41.230,4.592,296.2,546.7,291.3
2024-01-28T08:57:07,2420,42.8014,5.9826,4330,272,186.314,57.060,13.308,36.051,36.631,41.225,4.594,296.3,546.7,291.3
2024-01-28T09:00:07,2420,42.8014,5.9826,4330,272,186.230,57.034,13.307,36.056,36.636,41.229,4.592,296.1,546.7,291.3
2024-01-28T09:03:07,2420,42.8014,5.9826,4330,272,186.183,57.020,13.308,36.059,36.639,41.233,4.594,296.2,546.7,291.3
2024-01-28T09:06:07,2420,42.8014,5.9826,4330,272,186.173,57.018,13.309,36.059,36.639,41.229,4.590,296.1,546.6,291.3
2024-01-28T09:09:07,2420,42.8014,5.9826,4330,272,186.277,57.048,13.307,36.053,36.633,41.224,4.591,296.2,546.6,291.3
2024-01-28T09:12:08,2420,42.8014,5.9826,4330,272,186.300,57.053,13.306,36.052,36.632,41.228,4.596,296.3,546.7,291.4
2024-01-28T09:15:07,2420,42.8014,5.9826,4330,272,186.357,57.072,13.306,36.048,36.628,41.224,4.596,296.2,546.7,291.3
2024-01-28T09:18:08,2420,42.8014,5.9826,4330,272,186.411,57.089,13.307,36.045,36.625,41.219,4.594,296.2,546.7,291.3
2024-01-28T09:21:08,2420,42.8014,5.9826,4330,272,186.339,57.066,13.306,36.049,36.629,41.221,4.592,296.2,546.6,291.4
2024-01-28T09:24:08,2420,42.8014,5.9826,4330,272,186.237,57.034,13.306,36.056,36.636,41.232,4.596,296.2,546.7,291.4
2024-01-28T09:27:08,2420,42.8014,5.9826,4330,272,186.154,57.006,13.304,36.063,36.642,41.237,4.595,296.2,546.7,291.4
2024-01-28T09:30:08,2420,42.8014,5.9826,4330,272,186.222,57.029,13.306,36.058,36.638,41.229,4.591,296.2,546.7,291.4
2024-01-28T09:33:07,2420,42.8014,5.9826,4330,272,186.409,57.088,13.307,36.045,36.625,41.219,4.595,296.3,546.7,291.3
2024-01-28T09:36:07,2420,42.8014,5.9826,4330,272,186.349,57.070,13.307,36.048,36.628,41.224,4.595,296.2,546.7,291.3
2024-01-28T09:39:07,2420,42.8014,5.9826,4330,272,186.243,57.035,13.305,36.056,36.636,41.231,4.595,296.2,546.7,291.4
2024-01-28T09:42:07,2420,42.8014,5.9826,4330,272,186.010,56.963,13.305,36.072,36.651,41.238,4.587,296.2,546.6,291.4
2024-01-28T09:45:07,2420,42.8014,5.9826,4330,272,186.164,57.012,13.306,36.061,36.641,41.230,4.589,296.2,546.7,291.4
2024-01-28T09:48:08,2420,42.8014,5.9826,4330,272,186.117,57.000,13.308,36.063,36.643,41.233,4.590,296.3,546.7,291.3
2024-01-28T09:51:08,2420,42.8014,5.9826,4330,272,186.121,56.999,13.306,36.064,36.643,41.229,4.586,296.2,546.7,291.3
2024-01-28T09:54:08,2420,42.8014,5.9826,4330,272,186.397,57.083,13.306,36.046,36.626,41.216,4.591,296.2,546.7,291.4
2024-01-28T09:57:08,2420,42.8014,5.9826,4330,272,186.322,57.059,13.305,36.051,36.631,41.221,4.590,296.3,546.8,291.4
2024-01-28T10:00:07,2420,42.8014,5.9826,4330,272,186.201,57.022,13.305,36.059,36.639,41.232,4.592,296.3,546.6,291.4